Location: Recife
(8.0585°S, 34.8848°W)
Time: 12:32:16
(UTC-03:00)

Tiros 1 - Pass Details

Date: 23 April 2026
Orbit: 618 x 648 km, 48.4° (Epoch: 11 May)

Event Time Altitude Azimuth Distance (km) Brightness Sun altitude
Rises 15:26:43 0° 348° (NNW) 2,922 10.9 24.8°
Reaches altitude 10° 15:29:32 10° 5° (N) 2,023 9.9 24.1°
Maximum altitude 15:32:58 20° 52° (NE) 1,475 8.8 23.3°
Drops below altitude 10° 15:36:25 10° 100° (E) 2,041 9.2 22.5°
Sets 15:39:16 0° 116° (ESE) 2,957 10.0 21.8°
